[[{"header":{"parameterUnit":"m.s-1","parameterCategory":1,"la1":30.2991,"la2":30.254,"lo1":-89.0895,"lo2":-89.0444,"dy":0.0017,"dx":0.0017,"nx":28,"ny":28,"refTime":"2025-06-17T09:00:00:Z","depth":0,"parameterNumber":2,"parameterNumberName":"U-component_of_WINDS"},"data":[0,0,0,0,0,0,0,0,0,0,0,0,0,0,0,0,0,0,0,0,0,0,0,0,0,0,0,0,0,0,0,0,0,0,0,0,0,0,0,0,0,0,0,0,0,0,0,0,0,0,0,0,0,0,0,0,0,0,0.9084,0.9084,0,0.9056,0.9056,0.9055,0.9024,0.9023,0.9023,0.9022,0.8993,0.8993,0.8992,0,0,0,0,0,0,0,0,0,0,0,0,0,0.911,0.911,0.9084,0.9084,0.9084,0.9056,0.9056,0.9055,0.9024,0.9023,0.9023,0.9022,0.8993,0.8993,0.8992,0,0,0,0,0,0,0,0,0,0,0,0,0,0.9092,0.911,0.9084,0.9065,0.9063,0.9056,0.9056,0.9055,0.9024,0.9023,0.9023,0.9022,0.8993,0.8993,0.8992,0.9003,0,0,0.8991,0.899,0,0,0,0,0,0,0,0,0.9093,0.9091,0.9068,0.9066,0.9064,0.9043,0.9054,0.9038,0.9024,0.9039,0.9022,0.9022,0.901,0.9008,0.9004,0.9002,0.9,0.8991,0.899,0.899,0.899,0,0,0,0,0,0,0,0.9094,0.9092,0.9073,0.9068,0.9065,0.9057,0.9053,0.9051,0.9029,0.9037,0.9035,0.9032,0.9009,0.9005,0.9003,0.9,0.8991,0.899,0.899,0.899,0.9002,0.9003,0,0,0,0,0,0,0.9099,0.9093,0.9074,0.9072,0.9077,0.9057,0.9053,0.905,0.9029,0.9025,0.9033,0.9031,0.9006,0.9004,0.9002,0.9012,0.899,0.899,0.8989,0.9002,0.9002,0.9003,0,0,0,0,0,0,0.9099,0.9097,0.9075,0.9082,0.9079,0.9057,0.9054,0.905,0.9046,0.9025,0.9021,0.9033,0.9006,0.9003,0.9003,0.901,0.8989,0.8989,0.9001,0.9002,0.9003,0.9032,0,0,0,0,0,0,0.91,0.9098,0.9102,0.9083,0.9079,0.9076,0.9055,0.905,0.9045,0.9042,0.9024,0.902,0.9005,0.9003,0.9002,0.9009,0.8988,0.9,0.9001,0.9002,0.903,0.9034,0.9037,0,0,0,0,0,0.9101,0.9111,0.9102,0.91,0.9083,0.9077,0.9075,0.9057,0.9046,0.905,0.9036,0.9021,0.901,0.9004,0.9002,0.9009,0.8999,0.9001,0.9002,0.9029,0.9033,0.9037,0,0,0,0,0,0,0.9132,0.9109,0.9098,0.9103,0.9092,0.9072,0.9076,0.9062,0.9054,0.9052,0.903,0.9026,0.9028,0.9018,0.9012,0.9017,0.9002,0.9004,0.9023,0.9027,0.903,0.9032,0.8988,0,0,0,0,0,0.914,0.9137,0.9116,0.9122,0.9117,0.9098,0.9094,0.9081,0.9069,0.9065,0.9051,0.904,0.9034,0.903,0.9023,0.9029,0.9023,0.9033,0.9036,0.9039,0.904,0.904,0.9044,0.9008,0.9008,0.9008,0,0,0.9155,0.9142,0.9141,0.9128,0.9118,0.9115,0.9094,0.9092,0.9089,0.9064,0.9062,0.9052,0.9038,0.904,0.9041,0.9033,0.9049,0.9041,0.9043,0.9042,0.9042,0.9045,0.9048,0.9009,0.9009,0.9009,0,0,0.9181,0.9171,0.9174,0.9165,0.915,0.9137,0.9138,0.9119,0.9111,0.9109,0.909,0.9086,0.9076,0.9067,0.906,0.9082,0.9067,0.908,0.9097,0.9098,0.9101,0.9103,0.9109,0.9111,0.9081,0.9081,0.9081,0,0.9201,0.9196,0.9177,0.9176,0.917,0.9147,0.915,0.9141,0.9126,0.9122,0.9113,0.9099,0.9089,0.9087,0.9092,0.9089,0.9088,0.9082,0.9102,0.9104,0.9106,0.9111,0.9114,0.9083,0.9083,0.9083,0.9082,0,0.9221,0.9218,0.9222,0.9207,0.9201,0.9202,0.9183,0.9179,0.9167,0.9154,0.9152,0.9138,0.9127,0.9126,0.9114,0.9123,0.9118,0.9106,0.909,0.9111,0.9116,0.9118,0.9085,0.9085,0.9084,0.9084,0,0,0.9265,0.9239,0.9241,0.9233,0.9215,0.9212,0.9211,0.9201,0.9197,0.9187,0.9185,0.9177,0.9165,0.9158,0.9145,0.9146,0.9161,0.9133,0.9133,0.9138,0.9168,0.9176,0.9179,0.9152,0.9152,0.9152,0.9168,0,0.9286,0.9283,0.9266,0.9268,0.9264,0.9242,0.9241,0.9229,0.9218,0.9212,0.9199,0.9192,0.9179,0.9174,0.9174,0.9159,0.9167,0.9158,0.9148,0.9148,0.9151,0.9181,0.919,0.9206,0.917,0.9171,0.9171,0,0.931,0.9301,0.9303,0.9284,0.9281,0.9281,0.9269,0.9264,0.925,0.9241,0.9233,0.9218,0.9215,0.9201,0.9196,0.919,0.9185,0.9177,0.9177,0.9175,0.916,0.9178,0.921,0.9212,0.9174,0.9173,0.9173,0,0.934,0.9328,0.9327,0.9321,0.93,0.93,0.9291,0.9276,0.927,0.926,0.9256,0.9246,0.924,0.9232,0.9213,0.9206,0.9209,0.9195,0.9201,0.9201,0.9202,0.9201,0.9232,0.9201,0.9201,0.9201,0.9201,0,0.9365,0.9366,0.934,0.9339,0.934,0.932,0.932,0.9309,0.9296,0.9292,0.9273,0.927,0.9247,0.924,0.9226,0.9223,0.9221,0.9212,0.9208,0.9213,0.9214,0.9209,0.9207,0.9201,0.9201,0.9201,0.9201,0,0.9397,0.938,0.9377,0.9357,0.9352,0.9353,0.9335,0.9333,0.932,0.9315,0.9313,0.9292,0.9283,0.9265,0.9251,0.9241,0.9241,0.9235,0.9245,0.9243,0.9249,0.9248,0.9276,0.9278,0.9247,0.9248,0.9248,0,0.9413,0.9414,0.9393,0.9389,0.9381,0.9375,0.9369,0.9349,0.9344,0.9327,0.9327,0.9317,0.9308,0.9295,0.9278,0.9267,0.9259,0.927,0.9257,0.9262,0.9257,0.9257,0.9256,0.9272,0.9273,0.9273,0.9273,0,0.9443,0.9434,0.9427,0.9416,0.941,0.94,0.9389,0.9387,0.9365,0.9359,0.935,0.9343,0.9329,0.9318,0.9305,0.9294,0.928,0.9278,0.9278,0.9282,0.9288,0.9283,0.9251,0.9277,0.9276,0.9276,0.9276,0.9276,0.9467,0.9466,0.9451,0.9443,0.9433,0.9423,0.942,0.9406,0.9398,0.9385,0.9374,0.9365,0.935,0.9331,0.9321,0.9314,0.9306,0.9308,0.9308,0.9308,0.9309,0.929,0.9311,0.9311,0.9311,0.9311,0.9311,0,0.9494,0.9483,0.9476,0.9462,0.9455,0.9443,0.943,0.9425,0.9418,0.9405,0.9396,0.9385,0.9375,0.9357,0.9345,0.9342,0.9335,0.934,0.9339,0.9336,0.9317,0.9317,0.9346,0.9346,0.9346,0.9346,0.9346,0.9345,0.9507,0.9504,0.9494,0.9485,0.9474,0.9466,0.946,0.945,0.944,0.9429,0.942,0.9409,0.9393,0.938,0.9369,0.9364,0.936,0.9366,0.9359,0.9341,0.9338,0.9335,0.9335,0.9366,0.9366,0.9379,0.9379,0.9379]},{"header":{"parameterUnit":"m.s-1","parameterCategory":1,"la1":30.2991,"la2":30.254,"lo1":-89.0895,"lo2":-89.0444,"dy":0.0017,"dx":0.0017,"nx":28,"ny":28,"refTime":"2025-06-17T09:00:00:Z","depth":0,"parameterNumber":3,"parameterNumberName":"V-component_of_WINDS"},"data":[0,0,0,0,0,0,0,0,0,0,0,0,0,0,0,0,0,0,0,0,0,0,0,0,0,0,0,0,0,0,0,0,0,0,0,0,0,0,0,0,0,0,0,0,0,0,0,0,0,0,0,0,0,0,0,0,0,0,5.0371,5.0372,0,5.0454,5.0455,5.0456,5.0391,5.0388,5.0385,5.0382,5.0462,5.0466,5.0471,0,0,0,0,0,0,0,0,0,0,0,0,0,5.0148,5.0153,5.0371,5.0372,5.0373,5.0454,5.0455,5.0456,5.0391,5.0388,5.0384,5.0381,5.046,5.0466,5.0471,0,0,0,0,0,0,0,0,0,0,0,0,0,5.0239,5.0154,5.0371,5.035,5.0349,5.0454,5.0455,5.0456,5.0392,5.0388,5.0383,5.038,5.0458,5.0465,5.0472,5.0599,0,0,5.0493,5.0497,0,0,0,0,0,0,0,0,5.0234,5.0248,5.0352,5.0352,5.0351,5.0408,5.0405,5.0504,5.0393,5.0376,5.0382,5.0378,5.0447,5.0454,5.0479,5.0602,5.0606,5.0494,5.0498,5.0501,5.0503,0,0,0,0,0,0,0,5.0228,5.0244,5.0403,5.0354,5.0353,5.0335,5.0343,5.0424,5.0433,5.0377,5.0372,5.0383,5.0445,5.0472,5.048,5.0607,5.0494,5.05,5.0505,5.0507,5.0835,5.0839,0,0,0,0,0,0,5.0225,5.0239,5.0401,5.0406,5.0281,5.0342,5.0351,5.0394,5.0432,5.0434,5.0387,5.038,5.0462,5.0472,5.0483,5.0631,5.0501,5.0508,5.0512,5.083,5.0836,5.0841,0,0,0,0,0,0,5.022,5.024,5.0397,5.0321,5.034,5.035,5.0398,5.0397,5.0424,5.044,5.044,5.0413,5.0459,5.0473,5.057,5.0633,5.0511,5.0518,5.0825,5.0832,5.0838,5.0931,0,0,0,0,0,0,5.0214,5.0239,5.0289,5.0323,5.0344,5.0486,5.0402,5.0402,5.0437,5.0429,5.0465,5.0466,5.0457,5.056,5.0577,5.0641,5.0523,5.0819,5.0828,5.0836,5.0922,5.094,5.0955,0,0,0,0,0,5.0206,5.0311,5.0292,5.0312,5.0408,5.049,5.0502,5.0491,5.0443,5.0492,5.0501,5.0465,5.0624,5.057,5.0589,5.0656,5.0815,5.0826,5.0836,5.0915,5.0937,5.0955,0,0,0,0,0,0,5.0282,5.0315,5.0294,5.0413,5.045,5.0479,5.054,5.0514,5.0563,5.0553,5.0536,5.0544,5.0646,5.0661,5.06,5.0779,5.0712,5.0726,5.0765,5.0786,5.0802,5.0796,5.0529,0,0,0,0,0,5.0313,5.0379,5.0404,5.0506,5.0526,5.053,5.0565,5.0554,5.059,5.0604,5.0621,5.0655,5.0712,5.075,5.0804,5.0924,5.0929,5.0979,5.0996,5.1009,5.1021,5.1083,5.1104,5.0874,5.0874,5.0874,0,0,5.0377,5.0403,5.0446,5.0522,5.0549,5.0615,5.0543,5.0617,5.0665,5.0614,5.0707,5.0721,5.0757,5.0866,5.0915,5.0881,5.1086,5.1022,5.1033,5.1037,5.1095,5.1117,5.1137,5.0881,5.0879,5.0878,0,0,5.0527,5.0555,5.0642,5.067,5.0712,5.0714,5.0735,5.0768,5.0775,5.0869,5.0831,5.0887,5.0987,5.1014,5.1041,5.1199,5.1166,5.1217,5.1302,5.1363,5.1381,5.1397,5.1451,5.147,5.1229,5.1229,5.123,0,5.06,5.0701,5.069,5.0766,5.0799,5.0758,5.0845,5.0872,5.0928,5.0951,5.0913,5.1036,5.1058,5.1171,5.121,5.1234,5.1255,5.1212,5.138,5.1395,5.141,5.1461,5.1482,5.1235,5.1234,5.1234,5.1233,0,5.0788,5.0858,5.0923,5.098,5.1021,5.1102,5.11,5.1142,5.1127,5.1132,5.1225,5.125,5.1307,5.1333,5.1319,5.1444,5.1421,5.1383,5.1314,5.1438,5.1485,5.1505,5.1243,5.1241,5.124,5.1238,0,0,5.0988,5.1037,5.1061,5.1085,5.1127,5.118,5.1257,5.1315,5.135,5.139,5.1452,5.1537,5.15,5.1531,5.1519,5.1572,5.1692,5.1526,5.1526,5.1554,5.1828,5.1856,5.1879,5.1672,5.1676,5.1679,5.1824,0,5.1138,5.1275,5.1267,5.1395,5.1457,5.1419,5.1486,5.1517,5.1524,5.1576,5.1582,5.1642,5.1591,5.1608,5.1659,5.1667,5.1747,5.1657,5.1727,5.173,5.1717,5.1904,5.1934,5.2071,5.1843,5.1846,5.1848,0,5.1331,5.1379,5.1514,5.1545,5.157,5.1632,5.1682,5.1733,5.1767,5.1768,5.1801,5.178,5.1855,5.1786,5.1888,5.1827,5.1855,5.1863,5.1868,5.1872,5.1795,5.1911,5.2114,5.2134,5.1878,5.1876,5.1874,0,5.146,5.1558,5.1651,5.1673,5.1712,5.1755,5.1773,5.1803,5.1837,5.188,5.1902,5.1953,5.198,5.2019,5.2011,5.1962,5.2113,5.2045,5.2113,5.2114,5.2146,5.2143,5.2353,5.2168,5.2167,5.2167,5.2167,0,5.1627,5.1711,5.1709,5.1766,5.1857,5.1845,5.1934,5.1947,5.1974,5.203,5.1999,5.2052,5.2039,5.2091,5.2085,5.2168,5.2181,5.2182,5.2178,5.2183,5.2183,5.22,5.2189,5.2173,5.2171,5.217,5.2169,0,5.1786,5.1789,5.1887,5.1916,5.1925,5.1991,5.2014,5.2066,5.207,5.2141,5.2157,5.2162,5.2222,5.2218,5.2284,5.228,5.2382,5.2369,5.2371,5.2367,5.2435,5.2428,5.2662,5.2691,5.2489,5.2491,5.2492,0,5.1892,5.1955,5.1991,5.2027,5.2048,5.2108,5.2142,5.2132,5.2169,5.2211,5.2258,5.2314,5.2359,5.2455,5.2463,5.2513,5.2499,5.2578,5.2506,5.2508,5.2497,5.2493,5.2497,5.2591,5.2593,5.2595,5.2597,0,5.2078,5.2076,5.2128,5.2181,5.2224,5.2264,5.2301,5.2332,5.2325,5.2368,5.2429,5.2464,5.2532,5.2587,5.2634,5.2649,5.2621,5.2619,5.2637,5.2642,5.2639,5.2639,5.2407,5.2613,5.2612,5.261,5.261,5.2609,5.2212,5.2265,5.2298,5.2357,5.2384,5.2419,5.2469,5.2479,5.253,5.2586,5.2576,5.2644,5.2673,5.2734,5.2754,5.2804,5.2776,5.2803,5.2809,5.2815,5.2822,5.2633,5.2813,5.2813,5.2812,5.2812,5.2811,0,5.2394,5.2413,5.2468,5.2521,5.2566,5.2538,5.2577,5.2616,5.2676,5.2707,5.2752,5.282,5.2873,5.2886,5.2936,5.2974,5.2962,5.2987,5.2983,5.2987,5.2846,5.2824,5.2996,5.2996,5.2996,5.2996,5.2996,5.2996,5.2494,5.2582,5.2584,5.2684,5.2701,5.2769,5.2793,5.2824,5.2848,5.2927,5.2971,5.298,5.3002,5.3054,5.31,5.3102,5.3121,5.3151,5.3148,5.3016,5.2997,5.2979,5.2959,5.3156,5.3156,5.3284,5.3285,5.3286]}]]